FREGAT DEB, 45889

Orbit data source: Space-Track

FREGAT DEB, 45889 is space debris in LEO originally from a launch on Mon, 18 Jul 2011 UTC launched from the Tyuratam Missile And Space Complex (TTMTR). Debris objects in space refer to the collection of defunct objects orbiting the Earth. Examples of debris include non-operational satellites, rocket bodies, and fragments generated from explosions, collisions, or faulty payload assembly.

Loading next visibility...
Identifier
45889, 2011-037DJ
Orbit
LEO
Last TLE update
1 day ago
Origin
Manufacturer
Lavochkin
Mission
Spacecraft
Bus & Motor
Unknown
Mass
Unknown
Launch date (UTC)
2011-07-18 (14 years ago)
Launch vehicle
Unknown
Launch site
Tyuratam Missile And Space Complex (TTMTR)
Object type
Payload
Rocket body
Debris
Shape & HBR
Unknown
Radar Cross Section
Small (<0.1 m²)

Expand to show TLE details & history

TLE from 1 day ago
0 FREGAT DEB
1 45889U 11037DJ  25181.37943348  .00039919  00000-0  50983-2 0  9992
2 45889  51.3372 258.8109 0919154 350.4257   8.0115 13.38297165214563
Epoch: 2025-06-30T09:06Z
TLE epoch observation values (Epoch: 2025-06-30T09:06:23.052Z)
Latitude
-0.00002°
Longitude
-156.47525°
Altitude
435.66 km
Speed
7.991 km/s
True Right ascension
17h 15m 14s
True Declination
0° 00' 00"
Sunlit
Object was in full shadow at epoch
Visualization orbit readout
Latitude
-50.03215°
Longitude
128.08982°
Altitude
859.428 km
Speed
7.557 km/s
Apparent Right ascension
10h 49m 42s
Apparent Declination
-46° 58' 14"
Sunlit
Object is in daylight
Visualization observer readout
Local Sidereal Time
21:30:13
Azimuth
237.304° WSW
Elevation
-74.001°
Doppler factor
1
Orbital elements
Apogee altitude
1,804.982 km
Perigee altitude
427.303 km
Semi-major axis
7,494.279 km
Eccentricity
0.09192
Inclination
51.3372°
RAAN
258.8109°
Arg. of periapsis
350.4257°
True anomaly
Unknown
Mean anomaly
8.0115°
Eccentric anomaly
Unknown
Mean motion
3.3454 °/min
Orbital period
107.61 mins
BSTAR
0.0050983
Loading maneuver chart data...
Loading SW <> Apogee altitude chart data...
Loading historical data...
Loading historical data...
Loading historical data...
Loading historical data...
Loading historical data...
Loading historical data...
Loading historical data...

FREGAT DEB Visibility forecast

Observer location: undefined°, undefined°

Span
Click to sort rows by Start time (UTC) header in descending order
Start Az.
Max El. time (UTC)
Max El. Az.
Max El.
End time (UTC)
End Az.
11 mins2025-07-01 10:28:51.792Z294.567° NW2025-07-01 10:33:51.792Z0.298° NNE28.566°2025-07-01 10:39:51.792Z54.822° ENE
13 mins2025-07-01 12:22:51.792Z316.424° NNW2025-07-01 12:27:51.792Z17.378° NNE33.566°2025-07-01 12:35:51.792Z84.162° E
17 mins2025-07-01 14:14:51.792Z307.656° NW2025-07-01 14:21:51.792Z57.233° ENE44.862°2025-07-01 14:31:51.792Z125.894° SE
16 mins2025-07-01 16:07:51.792Z287.797° WNW2025-07-01 16:14:51.792Z229.23° WSW30.791°2025-07-01 16:23:51.792Z171.531° S
8 mins2025-07-02 07:53:51.792Z235.346° WSW2025-07-02 07:56:51.792Z12.207° NNE44.813°2025-07-02 08:01:51.792Z52.808° ENE
5 mins2025-07-02 09:46:51.792Z298.666° NW2025-07-02 09:49:51.792Z347.215° N29.23°2025-07-02 09:51:51.792Z21.09° NNE
|